Regional Weather Roundup
Issued by NWS Goodland, KS

Home | Current Version | Previous Version | Graphics & Text | Print | Product List | Glossary On
Versions: 1 2 3 4 5 6 7 8 9 10 11 12 13 14 15 16 17 18 19 20 21 22 23 24 25 26 27 28 29 30 31 32 33 34 35 36 37 38 39 40 41 42 43 44 45 46 47 48 49 50
000
ASUS43 KGLD 260008
RWRGLD

GOODLAND FORECAST AREA HOURLY WEATHER ROUNDUP
NATIONAL WEATHER SERVICE GOODLAND KS
600 PM MDT SUN JUN 25 2017

...OFFICIAL OBSERVATIONS...

CITY           SKY/WX    TMP DP  RH WIND       PRES   REMARKS
GOODLAND KS    CLOUDY    62  58  86 E12       30.27F
HILL CITY KS   CLOUDY    63  61  93 E12       30.25F
IMPERIAL NEB   PTSUNNY   66  52  60 S13       30.28S
MCCOOK NEB     CLOUDY    68  54  60 S8        30.26F
AKRON CO       PTSUNNY   67  53  61 SE12      30.29S
BURLINGTON CO  PTSUNNY   64  56  75 E17       30.27F
LIMON CO       CLOUDY    67  56  67 SE16      30.28S
$$

...UNOFFICIAL OBSERVATIONS...

CITY           SKY/WX    TMP DP  RH WIND       PRES   REMARKS
LENORA KS        N/A     62  32  32 MISG        N/A
NORTON KS      MOSUNNY   68  52  56 S8        30.25F
SHARON SPRINGS   N/A     68  59  74 NE6G16      N/A
TRENTON NEB      N/A     72  32  23 S5          N/A
KIT CARSON CO    N/A     70  57  62 MISG        N/A
YUMA CO        FAIR      63  54  72 SE13      30.28S
$$




USA.gov is the U.S. government's official web portal to all federal, state and local government web resources and services.